Regional Weather Roundup
Issued by NWS

Home | Current Version | Previous Version | Text Only | Print | Product List | Glossary On
Versions: 1 2 3 4 5 6 7 8 9 10 11 12 13 14 15 16 17 18 19 20 21 22 23 24 25 26 27 28 29 30 31 32 33 34 35 36 37 38 39 40 41 42 43 44 45 46 47 48 49 50
231
ASUS43 KLOT 271508
RWRIL

ILLINOIS REGIONAL WEATHER ROUNDUP
NATIONAL WEATHER SERVICE CHICAGO/ROMEOVILLE IL
900 AM CST THU FEB 27 2020

NOTE: "FAIR" INDICATES FEW OR NO CLOUDS BELOW 12,000 FEET WITH NO
SIGNIFICANT WEATHER AND/OR OBSTRUCTIONS TO VISIBILITY.

* THESE STATIONS ARE NOT UNDER NWS QUALITY CONTROL. THEY ALSO MAY NOT
  REPORT WEATHER SUCH AS PRECIPITATION OR FOG.

ILZ001-002-007-009-015-016-024-271600-
NORTHWEST ILLINOIS

CITY           SKY/WX    TMP DP  RH WIND       PRES   REMARKS
MOLINE         FAIR      29  16  58 W5        30.11F WCI  24
STERLING*      FLURRIES  25  17  72 W9        30.11S WCI  15
SAVANNA*       CLOUDY    27  16  63 CALM      30.11S
$$

ILZ003-004-008-010-011-017-018-271600-
NORTH CENTRAL ILLINOIS

CITY           SKY/WX    TMP DP  RH WIND       PRES   REMARKS
ROCKFORD       FLURRIES  25  15  66 W13       30.09S WCI  14
FREEPORT*      PTSUNNY   23  15  70 NW13      30.10R WCI  11
ROCHELLE*      CLOUDY    23  17  77 W13       30.09F WCI  11
DE KALB*       CLOUDY    24  16  73 W13       30.07S WCI  12
PERU*          CLOUDY    26  16  65 W7        30.12S WCI  19
$$

ILZ005-006-012>014-019>023-271600-
NORTHEAST ILLINOIS

CITY           SKY/WX    TMP DP  RH WIND       PRES   REMARKS
CHICAGO-OHARE  CLOUDY    26  12  55 W10G18    30.05S WCI  16
CHICAGO-MIDWAY PTSUNNY   26  12  55 W12       30.07S WCI  16
SCHAUMBURG     NOT AVBL
AURORA         CLOUDY    25  16  68 W10       30.07S WCI  15
LANSING*       FAIR      26  14  60 W7        30.08S WCI  18
JOLIET*        FAIR      28  18  66 W7        30.09R WCI  20
WAUKEGAN       CLOUDY    23  11  60 NW6       30.04S WCI  16
DUPAGE AIRPORT CLOUDY    24  16  71 W7        30.05F WCI  16
KANKAKEE*      CLOUDY    25  18  74 W15       30.12S WCI  12
WHEELING       CLOUDY    27  11  51 NW9       30.06S WCI  18
MORRIS*        CLOUDY    24  18  77 W13G18    30.10S WCI  12
ROMEOVILLE*    CLOUDY    25  18  73 NW10      30.08F WCI  15
$$

LMZ740>746-271600-
SOUTHERN LAKE MICHIGAN

STATION/POSITION SKY/WX   TEMP    WIND        PRES    VSBY  WAVE
                          AIR SEA DIR/SP/G                  HT/PER
                          (F)     (DEG/KT/KT) (MB)    (MI)  (FT/S)
HARRISON CRIB              27     300/ 15/ 17   N/A
CALUMET HARBOR             26     280/  6/ 10 1017.6R
MICHIGAN CITY              26     290/ 21/ 22   N/A
$$

ILZ025>027-034>036-040-047-049-050-058-095>099-271600-
WEST-CENTRAL ILLINOIS

CITY           SKY/WX    TMP DP  RH WIND       PRES   REMARKS
QUINCY         SUNNY     31  20  63 SW13      30.13F WCI  21
GALESBURG*     CLOUDY    29  19  68 MISG      30.13F
MACOMB*        CLOUDY    29  20  68 SW9       30.15F WCI  20
JACKSONVILLE*  CLOUDY    29  20  70 SW10      30.16F WCI  20
PITTSFIELD*    CLOUDY    31  23  72 SW12      30.17S WCI  22
$$

ILZ028>032-037-038-041>044-048-051>054-059>061-271600-
CENTRAL ILLINOIS

CITY           SKY/WX    TMP DP  RH WIND       PRES   REMARKS
PONTIAC        CLOUDY    26  16  67 W13       30.13S WCI  15
BLOOMINGTON    CLOUDY    29  18  63 W10       30.14S WCI  20
DECATUR        PTSUNNY   27  18  69 SW8       30.17S WCI  19
PEORIA         CLOUDY    25  17  72 SW5       30.14F WCI  19
LACON*         CLOUDY    26  17  70 W5        30.13S WCI  20
LINCOLN*       PTSUNNY   29  16  59 SW5       30.16F WCI  24
SPRINGFIELD    CLOUDY    30  17  58 SW10      30.16F WCI  21
TAYLORVILLE    FAIR      30  19  63 SW13      30.18S WCI  20
$$

ILZ033-039-045-046-055>057-062-063-271600-
EAST-CENTRAL ILLINOIS

CITY           SKY/WX    TMP DP  RH WIND       PRES   REMARKS
CHAMPAIGN      CLOUDY    26  18  71 W13       30.15S WCI  15
DANVILLE*      PTSUNNY   26  17  69 W12       30.11F WCI  16
RANTOUL*       CLOUDY    26  18  72 W14       30.14S WCI  14
MATTOON        FAIR      27  18  69 W9        30.17R WCI  18
PARIS*         FAIR      30  22  70 W16       30.17S WCI  19
$$

ILZ079-100>102-271600-
SOUTHWEST ILLINOIS

CITY           SKY/WX    TMP DP  RH WIND       PRES   REMARKS
ALTON          MOSUNNY   30  25  80 SW8       30.22S WCI  23
BELLEVILLE     PTSUNNY   33  22  64 SW8       30.22S WCI  26
CAHOKIA*       MOSUNNY   31  21  66 SW8       30.23S WCI  23
SPARTA*        SUNNY     32  21  64 SW7       30.25F WCI  26
$$

ILZ064>066-069>071-074>076-080>082-084>086-088>090-092>094-271600-
SOUTH-CENTRAL ILLINOIS

CITY           SKY/WX    TMP DP  RH WIND       PRES   REMARKS
CARBONDALE     FAIR      31  21  66 SW7       30.27R WCI  24
CAIRO*         FAIR      32  23  70 W6        30.31R WCI  26
EFFINGHAM*     FAIR      30 -12  15 SW9       30.22S WCI  22
MARION         SUNNY     34  21  60 SW7       30.27R WCI  28
MT. VERNON     FAIR      34  20  56 SW8       30.25R WCI  27
CENTRALIA*     SUNNY     32  24  71 SW9       30.23S WCI  24
SALEM*         FAIR      32  20  61 W9        30.23S WCI  24
METROPOLIS*    FAIR      34  24  67 SW7       30.30R WCI  27
$$

ILZ067-068-072-073-078-083-087-091-271600-
SOUTHEAST ILLINOIS

CITY           SKY/WX    TMP DP  RH WIND       PRES   REMARKS
LAWRENCEVILLE  FAIR      32  18  56 W10       30.22R WCI  24
FLORA*         FAIR      30  19  64 W12       30.23S WCI  21
FAIRFIELD*     FAIR      31  19  58 SW6       30.24R WCI  26
HARRISBURG*    FAIR      33  19  55 W8        30.28R WCI  26
ROBINSON*      FAIR      30  20  65 W12       30.22R WCI  21
CARMI*         FAIR      32  21  64 N9        30.25R WCI  24
$$

ABBREVIATIONS USED IN REMARKS
   TC - TEMPERATURE IN CELSIUS
  WCI - WIND CHILL INDEX
   HX - HEAT INDEX
  VSB - VISIBILITY
$$





USA.gov is the U.S. government's official web portal to all federal, state and local government web resources and services.